When you browse on this site, cookies collect data to enhance your experience and personalize the content and advertising you see.
Visit our Privacy Policy to learn more. By continuing to use the site, you agree to this use of cookies and data.
  • In Schweiz
  • Länderverzeichnis
  • Für 7 Tage
  • Wassertemperatur
  • Wetterkarte
  • Widgets
  • user-avatar
    Anmelden

    Stündliche Wetter Poverischi

    Heute, 19 August, Montag

    Zeit Temperatur Niederschläge Wind Luftdruck Luftfeuchtigkeit
    00:00 +15°C° 0 mm 2 m/S 753 mmHg 86%
    01:00 +14°C° 0 mm 2 m/S 753 mmHg 88%
    02:00 +14°C° 0 mm 2 m/S 753 mmHg 91%
    03:00 +14°C° 0 mm 2 m/S 753 mmHg 89%
    04:00 +13°C° 0 mm 3 m/S 753 mmHg 87%
    05:00 +13°C° 0 mm 3 m/S 753 mmHg 85%
    06:00 +16°C° 0 mm 3 m/S 753 mmHg 81%
    07:00 +17°C° 0 mm 3 m/S 753 mmHg 78%
    08:00 +18°C° 0 mm 4 m/S 753 mmHg 72%
    09:00 +20°C° 0 mm 4 m/S 753 mmHg 70%
    10:00 +22°C° 0 mm 4 m/S 752 mmHg 69%
    11:00 +23°C° 0 mm 4 m/S 752 mmHg 67%
    12:00 +25°C° 0 mm 4 m/S 752 mmHg 66%
    13:00 +27°C° 0 mm 4 m/S 752 mmHg 64%
    14:00 +28°C° 0 mm 4 m/S 753 mmHg 63%
    15:00 +27°C° 0.5 mm 4 m/S 753 mmHg 70%
    16:00 +26°C° 0.5 mm 3 m/S 753 mmHg 77%
    17:00 +25°C° 0.5 mm 3 m/S 753 mmHg 85%
    18:00 +24°C° 0.1 mm 2 m/S 753 mmHg 88%
    19:00 +21°C° 0.1 mm 2 m/S 754 mmHg 91%
    20:00 +20°C° 0.1 mm 2 m/S 754 mmHg 94%
    21:00 +19°C° 0 mm 2 m/S 755 mmHg 95%
    22:00 +19°C° 0 mm 2 m/S 755 mmHg 95%
    23:00 +18°C° 0 mm 2 m/S 755 mmHg 96%

    Morgen, 20 August, Dienstag

    Zeit Temperatur Niederschläge Wind Luftdruck Luftfeuchtigkeit
    00:00 +17°C° 0 mm 2 m/S 756 mmHg 94%
    01:00 +18°C° 0 mm 1 m/S 756 mmHg 92%
    02:00 +16°C° 0 mm 1 m/S 757 mmHg 90%
    03:00 +16°C° 0 mm 1 m/S 757 mmHg 89%
    04:00 +15°C° 0 mm 1 m/S 757 mmHg 88%
    05:00 +14°C° 0 mm 0 m/S 758 mmHg 87%
    06:00 +15°C° 0 mm 0 m/S 758 mmHg 85%
    07:00 +15°C° 0 mm 0 m/S 758 mmHg 83%
    08:00 +16°C° 0 mm 0 m/S 758 mmHg 81%
    09:00 +18°C° 0 mm 0 m/S 758 mmHg 73%
    10:00 +20°C° 0 mm 0 m/S 759 mmHg 65%
    11:00 +21°C° 0 mm 0 m/S 759 mmHg 57%
    12:00 +22°C° 0 mm 0 m/S 759 mmHg 56%
    13:00 +23°C° 0 mm 0 m/S 759 mmHg 54%
    14:00 +26°C° 0 mm 1 m/S 759 mmHg 53%
    15:00 +25°C° 0 mm 1 m/S 759 mmHg 55%
    16:00 +25°C° 0 mm 1 m/S 759 mmHg 57%
    17:00 +25°C° 0 mm 1 m/S 759 mmHg 59%
    18:00 +23°C° 0 mm 1 m/S 759 mmHg 65%
    19:00 +21°C° 0 mm 1 m/S 760 mmHg 71%
    20:00 +19°C° 0 mm 1 m/S 760 mmHg 78%
    21:00 +18°C° 0 mm 1 m/S 760 mmHg 80%
    22:00 +16°C° 0 mm 1 m/S 760 mmHg 83%
    23:00 +15°C° 0 mm 0 m/S 760 mmHg 85%

    übermorgen, 21 August, Mittwoch

    Zeit Temperatur Niederschläge Wind Luftdruck Luftfeuchtigkeit
    00:00 +14°C° 0 mm 0 m/S 761 mmHg 85%
    01:00 +14°C° 0 mm 0 m/S 761 mmHg 86%
    02:00 +14°C° 0 mm 0 m/S 761 mmHg 86%
    03:00 +14°C° 0 mm 0 m/S 761 mmHg 86%
    04:00 +15°C° 0 mm 1 m/S 761 mmHg 87%
    05:00 +14°C° 0 mm 1 m/S 761 mmHg 88%
    06:00 +16°C° 0 mm 1 m/S 761 mmHg 83%
    07:00 +19°C° 0 mm 1 m/S 761 mmHg 79%
    08:00 +20°C° 0 mm 1 m/S 761 mmHg 75%
    09:00 +21°C° 0 mm 1 m/S 761 mmHg 70%
    10:00 +22°C° 0 mm 1 m/S 761 mmHg 65%
    11:00 +24°C° 0 mm 1 m/S 761 mmHg 61%
    12:00 +23°C° 0.1 mm 1 m/S 760 mmHg 66%
    13:00 +22°C° 0.1 mm 1 m/S 760 mmHg 72%
    14:00 +21°C° 0.1 mm 1 m/S 760 mmHg 77%
    15:00 +20°C° 0.1 mm 1 m/S 760 mmHg 79%
    16:00 +19°C° 0.1 mm 2 m/S 760 mmHg 82%
    17:00 +19°C° 0.1 mm 2 m/S 760 mmHg 84%
    18:00 +18°C° 0 mm 2 m/S 760 mmHg 86%
    19:00 +17°C° 0 mm 2 m/S 760 mmHg 87%
    20:00 +17°C° 0 mm 2 m/S 760 mmHg 89%
    21:00 +16°C° 0.2 mm 2 m/S 760 mmHg 91%
    22:00 +16°C° 0.2 mm 2 m/S 760 mmHg 93%
    23:00 +15°C° 0.2 mm 2 m/S 760 mmHg 95%

    22 August, Donnerstag

    Zeit Temperatur Niederschläge Wind Luftdruck Luftfeuchtigkeit
    00:00 +15°C° 0.4 mm 2 m/S 760 mmHg 95%
    01:00 +15°C° 0.4 mm 2 m/S 760 mmHg 95%
    02:00 +15°C° 0.4 mm 2 m/S 760 mmHg 95%
    03:00 +14°C° 0 mm 2 m/S 760 mmHg 95%
    04:00 +14°C° 0 mm 1 m/S 761 mmHg 95%
    05:00 +13°C° 0 mm 1 m/S 761 mmHg 94%
    06:00 +14°C° 0 mm 1 m/S 761 mmHg 92%
    07:00 +15°C° 0 mm 2 m/S 761 mmHg 90%
    08:00 +16°C° 0 mm 2 m/S 761 mmHg 87%
    09:00 +17°C° 0 mm 2 m/S 761 mmHg 78%
    10:00 +19°C° 0 mm 2 m/S 761 mmHg 69%
    11:00 +21°C° 0 mm 3 m/S 762 mmHg 60%
    12:00 +21°C° 0 mm 3 m/S 762 mmHg 55%
    13:00 +23°C° 0 mm 2 m/S 761 mmHg 51%
    14:00 +23°C° 0 mm 2 m/S 761 mmHg 47%
    15:00 +23°C° 0 mm 2 m/S 761 mmHg 50%
    16:00 +23°C° 0 mm 2 m/S 761 mmHg 53%
    17:00 +23°C° 0 mm 1 m/S 761 mmHg 56%
    18:00 +20°C° 0 mm 1 m/S 761 mmHg 62%
    19:00 +18°C° 0 mm 1 m/S 762 mmHg 68%
    20:00 +15°C° 0 mm 1 m/S 762 mmHg 74%
    21:00 +15°C° 0 mm 1 m/S 762 mmHg 77%
    22:00 +14°C° 0 mm 1 m/S 762 mmHg 80%
    23:00 +13°C° 0 mm 1 m/S 763 mmHg 83%

    23 August, Freitag

    Zeit Temperatur Niederschläge Wind Luftdruck Luftfeuchtigkeit
    00:00 +13°C° 0 mm 1 m/S 763 mmHg 85%
    01:00 +12°C° 0 mm 1 m/S 763 mmHg 88%
    02:00 +12°C° 0 mm 1 m/S 763 mmHg 90%
    03:00 +12°C° 0 mm 1 m/S 763 mmHg 89%
    04:00 +11°C° 0 mm 1 m/S 763 mmHg 89%
    05:00 +11°C° 0 mm 1 m/S 763 mmHg 89%
    06:00 +13°C° 0 mm 1 m/S 763 mmHg 83%
    07:00 +14°C° 0 mm 1 m/S 763 mmHg 76%
    08:00 +16°C° 0 mm 1 m/S 763 mmHg 70%
    09:00 +19°C° 0 mm 1 m/S 763 mmHg 66%
    10:00 +19°C° 0 mm 2 m/S 763 mmHg 62%
    11:00 +20°C° 0 mm 2 m/S 763 mmHg 58%
    12:00 +21°C° 0 mm 2 m/S 763 mmHg 56%
    13:00 +23°C° 0 mm 2 m/S 763 mmHg 54%
    14:00 +23°C° 0 mm 2 m/S 763 mmHg 51%
    15:00 +23°C° 0 mm 2 m/S 763 mmHg 54%
    16:00 +23°C° 0 mm 2 m/S 762 mmHg 57%
    17:00 +23°C° 0 mm 1 m/S 762 mmHg 59%
    18:00 +21°C° 0 mm 1 m/S 762 mmHg 66%
    19:00 +19°C° 0 mm 1 m/S 763 mmHg 74%
    20:00 +16°C° 0 mm 1 m/S 763 mmHg 81%
    21:00 +15°C° 0 mm 1 m/S 763 mmHg 84%
    22:00 +14°C° 0 mm 1 m/S 763 mmHg 87%
    23:00 +14°C° 0 mm 1 m/S 763 mmHg 90%

    24 August, Samstag

    Zeit Temperatur Niederschläge Wind Luftdruck Luftfeuchtigkeit
    00:00 +13°C° 0 mm 1 m/S 763 mmHg 91%
    01:00 +13°C° 0 mm 1 m/S 763 mmHg 92%
    02:00 +13°C° 0 mm 1 m/S 763 mmHg 93%
    03:00 +13°C° 0 mm 1 m/S 763 mmHg 94%
    04:00 +12°C° 0 mm 1 m/S 763 mmHg 95%
    05:00 +12°C° 0 mm 2 m/S 763 mmHg 95%
    06:00 +14°C° 0 mm 2 m/S 763 mmHg 90%
    07:00 +15°C° 0 mm 2 m/S 763 mmHg 84%
    08:00 +17°C° 0 mm 2 m/S 763 mmHg 79%
    09:00 +18°C° 0 mm 2 m/S 763 mmHg 73%
    10:00 +20°C° 0 mm 2 m/S 763 mmHg 68%
    11:00 +21°C° 0 mm 3 m/S 763 mmHg 62%
    12:00 +22°C° 0 mm 3 m/S 763 mmHg 59%
    13:00 +24°C° 0 mm 3 m/S 763 mmHg 55%
    14:00 +25°C° 0 mm 3 m/S 763 mmHg 51%
    15:00 +24°C° 0 mm 2 m/S 763 mmHg 54%
    16:00 +24°C° 0 mm 2 m/S 763 mmHg 58%
    17:00 +24°C° 0 mm 2 m/S 762 mmHg 61%
    18:00 +21°C° 0 mm 2 m/S 762 mmHg 66%
    19:00 +19°C° 0 mm 2 m/S 762 mmHg 71%
    20:00 +17°C° 0 mm 2 m/S 762 mmHg 76%
    21:00 +17°C° 0 mm 2 m/S 762 mmHg 78%
    22:00 +16°C° 0 mm 2 m/S 762 mmHg 81%
    23:00 +16°C° 0 mm 2 m/S 762 mmHg 83%
    Mehr zeigen